logo
Search for airport 
image banner adimage banner adimage banner ad
image banner ad

FAAP - Aviators Paradise

Located in Ifafi, South Africa

ICAO - , IATA -

Data provided by Airmate  

General information

Coordinates: S25°41'38" E27°46'57"
Elevation is 3800 feet MSL.
 
View others Airports in Mpumalanga

Operational data

Special qualification required
Current time UTC:
Current local time:
Weather at : FALA - Lanseria International ( 31 km )
METAR: FALA 180100Z AUTO 00000KT //// ///////// 12/03 Q1026 NOSIG
TAF: TAF FALA 172200Z 1800/1824 VRB03KT CAVOK TX26/1813Z TN10/1803Z
View NOTAMs / SUP AIP / TFR affecting this airport [VIEW]
Communications frequencies: [VIEW]

Runways:

RWY identifierQFULength (ft)Width (ft)SurfaceLDA (ft)
03246133UNK
21246133UNK

Airport contact information

Address: Ifafi South Africa

Satellite view of FAAP